Year,Month,Day,Hour,Minute,Value (Times are PST for insolation in W/m^2)
2018,10,09,00,00,0.00
2018,10,09,00,01,0.00
2018,10,09,00,02,0.00
2018,10,09,00,03,0.00
2018,10,09,00,04,0.00
2018,10,09,00,05,0.00
2018,10,09,00,06,0.00
2018,10,09,00,07,0.00
2018,10,09,00,08,0.00
2018,10,09,00,09,0.00
2018,10,09,00,10,0.00
2018,10,09,00,11,0.00
2018,10,09,00,12,0.00
2018,10,09,00,13,0.00
2018,10,09,00,14,0.00
2018,10,09,00,15,0.00
2018,10,09,00,16,0.00
2018,10,09,00,17,0.00
2018,10,09,00,18,0.00
2018,10,09,00,19,0.00
2018,10,09,00,20,0.00
2018,10,09,00,21,0.00
2018,10,09,00,22,0.00
2018,10,09,00,23,0.00
2018,10,09,00,24,0.00
2018,10,09,00,25,0.00
2018,10,09,00,26,0.00
2018,10,09,00,27,0.00
2018,10,09,00,28,0.00
2018,10,09,00,29,0.00
2018,10,09,00,30,0.00
2018,10,09,00,31,0.00
2018,10,09,00,32,0.00
2018,10,09,00,33,0.00
2018,10,09,00,34,0.00
2018,10,09,00,35,0.00
2018,10,09,00,36,0.00
2018,10,09,00,37,0.00
2018,10,09,00,38,0.00
2018,10,09,00,39,0.00
2018,10,09,00,40,0.00
2018,10,09,00,41,0.00
2018,10,09,00,42,0.00
2018,10,09,00,43,0.00
2018,10,09,00,44,0.00
2018,10,09,00,45,0.00
2018,10,09,00,46,0.00
2018,10,09,00,47,0.00
2018,10,09,00,48,0.00
2018,10,09,00,49,0.00
2018,10,09,00,50,0.00
2018,10,09,00,51,0.00
2018,10,09,00,52,0.00
2018,10,09,00,53,0.00
2018,10,09,00,54,0.00
2018,10,09,00,55,0.00
2018,10,09,00,56,0.00
2018,10,09,00,57,0.00
2018,10,09,00,58,0.00
2018,10,09,00,59,0.00
2018,10,09,01,00,0.00
2018,10,09,01,01,0.00
2018,10,09,01,02,0.00
2018,10,09,01,03,0.00
2018,10,09,01,04,0.00
2018,10,09,01,05,0.00
2018,10,09,01,06,0.00
2018,10,09,01,07,0.00
2018,10,09,01,08,0.00
2018,10,09,01,09,0.00
2018,10,09,01,10,0.00
2018,10,09,01,11,0.00
2018,10,09,01,12,0.00
2018,10,09,01,13,0.00
2018,10,09,01,14,0.00
2018,10,09,01,15,0.00
2018,10,09,01,16,0.00
2018,10,09,01,17,0.00
2018,10,09,01,18,0.00
2018,10,09,01,19,0.00
2018,10,09,01,20,0.00
2018,10,09,01,21,0.00
2018,10,09,01,22,0.00
2018,10,09,01,23,0.00
2018,10,09,01,24,0.00
2018,10,09,01,25,0.00
2018,10,09,01,26,0.00
2018,10,09,01,27,0.00
2018,10,09,01,28,0.00
2018,10,09,01,29,0.00
2018,10,09,01,30,0.00
2018,10,09,01,31,0.00
2018,10,09,01,32,0.00
2018,10,09,01,33,0.00
2018,10,09,01,34,0.00
2018,10,09,01,35,0.00
2018,10,09,01,36,0.00
2018,10,09,01,37,0.00
2018,10,09,01,38,0.00
2018,10,09,01,39,0.00
2018,10,09,01,40,0.00
2018,10,09,01,41,0.00
2018,10,09,01,42,0.00
2018,10,09,01,43,0.00
2018,10,09,01,44,0.00
2018,10,09,01,45,0.00
2018,10,09,01,46,0.00
2018,10,09,01,47,0.00
2018,10,09,01,48,0.00
2018,10,09,01,49,0.00
2018,10,09,01,50,0.00
2018,10,09,01,51,0.00
2018,10,09,01,52,0.00
2018,10,09,01,53,0.00
2018,10,09,01,54,0.00
2018,10,09,01,55,0.00
2018,10,09,01,56,0.00
2018,10,09,01,57,0.00
2018,10,09,01,58,0.00
2018,10,09,01,59,0.00
2018,10,09,02,00,0.00
2018,10,09,02,01,0.00
2018,10,09,02,02,0.00
2018,10,09,02,03,0.00
2018,10,09,02,04,0.00
2018,10,09,02,05,0.00
2018,10,09,02,06,0.00
2018,10,09,02,07,0.00
2018,10,09,02,08,0.00
2018,10,09,02,09,0.00
2018,10,09,02,10,0.00
2018,10,09,02,11,0.00
2018,10,09,02,12,0.00
2018,10,09,02,13,0.00
2018,10,09,02,14,0.00
2018,10,09,02,15,0.00
2018,10,09,02,16,0.00
2018,10,09,02,17,0.00
2018,10,09,02,18,0.00
2018,10,09,02,19,0.00
2018,10,09,02,20,0.00
2018,10,09,02,21,0.00
2018,10,09,02,22,0.00
2018,10,09,02,23,0.00
2018,10,09,02,24,0.00
2018,10,09,02,25,0.00
2018,10,09,02,26,0.00
2018,10,09,02,27,0.00
2018,10,09,02,28,0.00
2018,10,09,02,29,0.00
2018,10,09,02,30,0.00
2018,10,09,02,31,0.00
2018,10,09,02,32,0.00
2018,10,09,02,33,0.00
2018,10,09,02,34,0.00
2018,10,09,02,35,0.00
2018,10,09,02,36,0.00
2018,10,09,02,37,0.00
2018,10,09,02,38,0.00
2018,10,09,02,39,0.00
2018,10,09,02,40,0.00
2018,10,09,02,41,0.00
2018,10,09,02,42,0.00
2018,10,09,02,43,0.00
2018,10,09,02,44,0.00
2018,10,09,02,45,0.00
2018,10,09,02,46,0.00
2018,10,09,02,47,0.00
2018,10,09,02,48,0.00
2018,10,09,02,49,0.00
2018,10,09,02,50,0.00
2018,10,09,02,51,0.00
2018,10,09,02,52,0.00
2018,10,09,02,53,0.00
2018,10,09,02,54,0.00
2018,10,09,02,55,0.00
2018,10,09,02,56,0.00
2018,10,09,02,57,0.00
2018,10,09,02,58,0.00
2018,10,09,02,59,0.00
2018,10,09,03,00,0.00
2018,10,09,03,01,0.00
2018,10,09,03,02,0.00
2018,10,09,03,03,0.00
2018,10,09,03,04,0.00
2018,10,09,03,05,0.00
2018,10,09,03,06,0.00
2018,10,09,03,07,0.00
2018,10,09,03,08,0.00
2018,10,09,03,09,0.00
2018,10,09,03,10,0.00
2018,10,09,03,11,0.00
2018,10,09,03,12,0.00
2018,10,09,03,13,0.00
2018,10,09,03,14,0.00
2018,10,09,03,15,0.00
2018,10,09,03,16,0.00
2018,10,09,03,17,0.00
2018,10,09,03,18,0.00
2018,10,09,03,19,0.00
2018,10,09,03,20,0.00
2018,10,09,03,21,0.00
2018,10,09,03,22,0.00
2018,10,09,03,23,0.00
2018,10,09,03,24,0.00
2018,10,09,03,25,0.00
2018,10,09,03,26,0.00
2018,10,09,03,27,0.00
2018,10,09,03,28,0.00
2018,10,09,03,29,0.00
2018,10,09,03,30,0.00
2018,10,09,03,31,0.00
2018,10,09,03,32,0.00
2018,10,09,03,33,0.00
2018,10,09,03,34,0.00
2018,10,09,03,35,0.00
2018,10,09,03,36,0.00
2018,10,09,03,37,0.00
2018,10,09,03,38,0.00
2018,10,09,03,39,0.00
2018,10,09,03,40,0.00
2018,10,09,03,41,0.00
2018,10,09,03,42,0.00
2018,10,09,03,43,0.00
2018,10,09,03,44,0.00
2018,10,09,03,45,0.00
2018,10,09,03,46,0.00
2018,10,09,03,47,0.00
2018,10,09,03,48,0.00
2018,10,09,03,49,0.00
2018,10,09,03,50,0.00
2018,10,09,03,51,0.00
2018,10,09,03,52,0.00
2018,10,09,03,53,0.00
2018,10,09,03,54,0.00
2018,10,09,03,55,0.00
2018,10,09,03,56,0.00
2018,10,09,03,57,0.00
2018,10,09,03,58,0.00
2018,10,09,03,59,0.00
2018,10,09,04,00,0.00
2018,10,09,04,01,0.00
2018,10,09,04,02,0.00
2018,10,09,04,03,0.00
2018,10,09,04,04,0.00
2018,10,09,04,05,0.00
2018,10,09,04,06,0.00
2018,10,09,04,07,0.00
2018,10,09,04,08,0.00
2018,10,09,04,09,0.00
2018,10,09,04,10,0.00
2018,10,09,04,11,0.00
2018,10,09,04,12,0.00
2018,10,09,04,13,0.00
2018,10,09,04,14,0.00
2018,10,09,04,15,0.00
2018,10,09,04,16,0.00
2018,10,09,04,17,0.00
2018,10,09,04,18,0.00
2018,10,09,04,19,0.00
2018,10,09,04,20,0.00
2018,10,09,04,21,0.00
2018,10,09,04,22,0.00
2018,10,09,04,23,0.00
2018,10,09,04,24,0.00
2018,10,09,04,25,0.00
2018,10,09,04,26,0.00
2018,10,09,04,27,0.00
2018,10,09,04,28,0.00
2018,10,09,04,29,0.00
2018,10,09,04,30,0.00
2018,10,09,04,31,0.00
2018,10,09,04,32,0.00
2018,10,09,04,33,0.00
2018,10,09,04,34,0.00
2018,10,09,04,35,0.00
2018,10,09,04,36,0.00
2018,10,09,04,37,0.00
2018,10,09,04,38,0.00
2018,10,09,04,39,0.00
2018,10,09,04,40,0.00
2018,10,09,04,41,0.00
2018,10,09,04,42,0.00
2018,10,09,04,43,0.00
2018,10,09,04,44,0.00
2018,10,09,04,45,0.00
2018,10,09,04,46,0.00
2018,10,09,04,47,0.00
2018,10,09,04,48,0.00
2018,10,09,04,49,0.00
2018,10,09,04,50,0.00
2018,10,09,04,51,0.00
2018,10,09,04,52,0.00
2018,10,09,04,53,0.00
2018,10,09,04,54,0.00
2018,10,09,04,55,0.00
2018,10,09,04,56,0.00
2018,10,09,04,57,0.00
2018,10,09,04,58,0.00
2018,10,09,04,59,0.00
2018,10,09,05,00,0.00
2018,10,09,05,01,0.00
2018,10,09,05,02,0.00
2018,10,09,05,03,0.00
2018,10,09,05,04,0.00
2018,10,09,05,05,0.00
2018,10,09,05,06,0.00
2018,10,09,05,07,0.00
2018,10,09,05,08,0.00
2018,10,09,05,09,0.00
2018,10,09,05,10,0.00
2018,10,09,05,11,0.00
2018,10,09,05,12,0.00
2018,10,09,05,13,0.00
2018,10,09,05,14,0.00
2018,10,09,05,15,0.00
2018,10,09,05,16,0.00
2018,10,09,05,17,0.00
2018,10,09,05,18,0.00
2018,10,09,05,19,0.00
2018,10,09,05,20,0.00
2018,10,09,05,21,0.00
2018,10,09,05,22,0.00
2018,10,09,05,23,0.00
2018,10,09,05,24,0.00
2018,10,09,05,25,0.00
2018,10,09,05,26,0.00
2018,10,09,05,27,0.00
2018,10,09,05,28,0.00
2018,10,09,05,29,0.00
2018,10,09,05,30,0.00
2018,10,09,05,31,0.00
2018,10,09,05,32,0.00
2018,10,09,05,33,0.00
2018,10,09,05,34,0.00
2018,10,09,05,35,0.00
2018,10,09,05,36,0.00
2018,10,09,05,37,0.00
2018,10,09,05,38,0.00
2018,10,09,05,39,0.00
2018,10,09,05,40,0.00
2018,10,09,05,41,0.00
2018,10,09,05,42,0.00
2018,10,09,05,43,0.00
2018,10,09,05,44,0.00
2018,10,09,05,45,0.00
2018,10,09,05,46,0.00
2018,10,09,05,47,0.00
2018,10,09,05,48,0.00
2018,10,09,05,49,0.00
2018,10,09,05,50,0.00
2018,10,09,05,51,0.00
2018,10,09,05,52,0.00
2018,10,09,05,53,0.00
2018,10,09,05,54,0.00
2018,10,09,05,55,0.00
2018,10,09,05,56,0.00
2018,10,09,05,57,0.00
2018,10,09,05,58,0.00
2018,10,09,05,59,0.00
2018,10,09,06,00,0.00
2018,10,09,06,01,0.00
2018,10,09,06,02,0.00
2018,10,09,06,03,0.00
2018,10,09,06,04,0.00
2018,10,09,06,05,0.00
2018,10,09,06,06,0.00
2018,10,09,06,07,0.00
2018,10,09,06,08,0.00
2018,10,09,06,09,0.00
2018,10,09,06,10,0.00
2018,10,09,06,11,0.00
2018,10,09,06,12,0.00
2018,10,09,06,13,0.00
2018,10,09,06,14,0.00
2018,10,09,06,15,0.00
2018,10,09,06,16,0.00
2018,10,09,06,17,0.00
2018,10,09,06,18,0.00
2018,10,09,06,19,0.00
2018,10,09,06,20,0.00
2018,10,09,06,21,0.00
2018,10,09,06,22,0.00
2018,10,09,06,23,0.00
2018,10,09,06,24,0.00
2018,10,09,06,25,0.00
2018,10,09,06,26,0.00
2018,10,09,06,27,0.00
2018,10,09,06,28,0.00
2018,10,09,06,29,0.00
2018,10,09,06,30,0.00
2018,10,09,06,31,0.00
2018,10,09,06,32,0.00
2018,10,09,06,33,0.00
2018,10,09,06,34,0.00
2018,10,09,06,35,0.00
2018,10,09,06,36,0.00
2018,10,09,06,37,0.00
2018,10,09,06,38,0.00
2018,10,09,06,39,0.00
2018,10,09,06,40,0.00
2018,10,09,06,41,0.00
2018,10,09,06,42,0.00
2018,10,09,06,43,0.00
2018,10,09,06,44,0.00
2018,10,09,06,45,0.00
2018,10,09,06,46,0.00
2018,10,09,06,47,0.00
2018,10,09,06,48,0.00
2018,10,09,06,49,0.00
2018,10,09,06,50,0.00
2018,10,09,06,51,0.00
2018,10,09,06,52,0.00
2018,10,09,06,53,0.00
2018,10,09,06,54,0.00
2018,10,09,06,55,0.00
2018,10,09,06,56,0.00
2018,10,09,06,57,0.00
2018,10,09,06,58,0.00
2018,10,09,06,59,0.00
2018,10,09,07,00,0.00
2018,10,09,07,01,0.00
2018,10,09,07,02,0.00
2018,10,09,07,03,0.00
2018,10,09,07,04,0.00
2018,10,09,07,05,0.00
2018,10,09,07,06,0.00
2018,10,09,07,07,0.00
2018,10,09,07,08,0.00
2018,10,09,07,09,0.00
2018,10,09,07,10,0.00
2018,10,09,07,11,0.00
2018,10,09,07,12,0.00
2018,10,09,07,13,0.00
2018,10,09,07,14,0.00
2018,10,09,07,15,0.00
2018,10,09,07,16,0.00
2018,10,09,07,17,0.00
2018,10,09,07,18,0.00
2018,10,09,07,19,0.00
2018,10,09,07,20,0.00
2018,10,09,07,21,0.00
2018,10,09,07,22,0.00
2018,10,09,07,23,0.00
2018,10,09,07,24,0.00
2018,10,09,07,25,0.00
2018,10,09,07,26,0.00
2018,10,09,07,27,0.00
2018,10,09,07,28,0.00
2018,10,09,07,29,0.00
2018,10,09,07,30,0.00
2018,10,09,07,31,0.00
2018,10,09,07,32,0.00
2018,10,09,07,33,0.00
2018,10,09,07,34,0.00
2018,10,09,07,35,0.00
2018,10,09,07,36,0.00
2018,10,09,07,37,1.50
2018,10,09,07,38,7.00
2018,10,09,07,39,7.00
2018,10,09,07,40,7.00
2018,10,09,07,41,8.00
2018,10,09,07,42,9.00
2018,10,09,07,43,9.00
2018,10,09,07,44,9.00
2018,10,09,07,45,9.00
2018,10,09,07,46,9.00
2018,10,09,07,47,9.00
2018,10,09,07,48,11.70
2018,10,09,07,49,12.00
2018,10,09,07,50,12.00
2018,10,09,07,51,12.00
2018,10,09,07,52,12.40
2018,10,09,07,53,14.00
2018,10,09,07,54,14.00
2018,10,09,07,55,14.00
2018,10,09,07,56,14.00
2018,10,09,07,57,14.00
2018,10,09,07,58,14.00
2018,10,09,07,59,14.00
2018,10,09,08,00,14.00
2018,10,09,08,01,14.00
2018,10,09,08,02,14.00
2018,10,09,08,03,14.00
2018,10,09,08,04,14.00
2018,10,09,08,05,14.40
2018,10,09,08,06,21.30
2018,10,09,08,07,23.00
2018,10,09,08,08,23.00
2018,10,09,08,09,23.00
2018,10,09,08,10,23.00
2018,10,09,08,11,23.00
2018,10,09,08,12,23.00
2018,10,09,08,13,23.00
2018,10,09,08,14,23.00
2018,10,09,08,15,23.00
2018,10,09,08,16,23.00
2018,10,09,08,17,23.00
2018,10,09,08,18,23.00
2018,10,09,08,19,23.00
2018,10,09,08,20,26.60
2018,10,09,08,21,95.00
2018,10,09,08,22,95.00
2018,10,09,08,23,95.00
2018,10,09,08,24,98.30
2018,10,09,08,25,105.00
2018,10,09,08,26,105.00
2018,10,09,08,27,105.00
2018,10,09,08,28,105.00
2018,10,09,08,29,105.00
2018,10,09,08,30,105.00
2018,10,09,08,31,105.00
2018,10,09,08,32,105.00
2018,10,09,08,33,105.00
2018,10,09,08,34,105.00
2018,10,09,08,35,128.20
2018,10,09,08,36,130.00
2018,10,09,08,37,130.00
2018,10,09,08,38,131.80
2018,10,09,08,39,137.00
2018,10,09,08,40,139.80
2018,10,09,08,41,144.00
2018,10,09,08,42,144.00
2018,10,09,08,43,144.00
2018,10,09,08,44,144.00
2018,10,09,08,45,144.00
2018,10,09,08,46,153.00
2018,10,09,08,47,156.00
2018,10,09,08,48,156.00
2018,10,09,08,49,156.00
2018,10,09,08,50,58.00
2018,10,09,08,51,58.00
2018,10,09,08,52,58.00
2018,10,09,08,53,60.10
2018,10,09,08,54,65.00
2018,10,09,08,55,65.00
2018,10,09,08,56,65.00
2018,10,09,08,57,65.00
2018,10,09,08,58,65.00
2018,10,09,08,59,65.00
2018,10,09,09,00,65.00
2018,10,09,09,01,65.00
2018,10,09,09,02,65.00
2018,10,09,09,03,65.00
2018,10,09,09,04,65.00
2018,10,09,09,05,65.00
2018,10,09,09,06,65.00
2018,10,09,09,07,65.00
2018,10,09,09,08,65.00
2018,10,09,09,09,65.00
2018,10,09,09,10,65.00
2018,10,09,09,11,65.00
2018,10,09,09,12,65.00
2018,10,09,09,13,67.40
2018,10,09,09,14,69.00
2018,10,09,09,15,69.00
2018,10,09,09,16,69.00
2018,10,09,09,17,69.00
2018,10,09,09,18,69.00
2018,10,09,09,19,69.00
2018,10,09,09,20,69.00
2018,10,09,09,21,69.00
2018,10,09,09,22,69.00
2018,10,09,09,23,69.00
2018,10,09,09,24,69.00
2018,10,09,09,25,69.00
2018,10,09,09,26,69.00
2018,10,09,09,27,69.00
2018,10,09,09,43,323.00
2018,10,09,09,44,323.00
2018,10,09,09,45,313.20
2018,10,09,09,46,309.00
2018,10,09,09,47,309.00
2018,10,09,09,48,363.00
2018,10,09,09,49,369.00
2018,10,09,09,50,369.00
2018,10,09,09,51,369.00
2018,10,09,09,52,369.00
2018,10,09,09,53,369.00
2018,10,09,09,54,330.10
2018,10,09,09,55,213.90
2018,10,09,09,56,176.60
2018,10,09,09,57,195.00
2018,10,09,09,58,217.60
2018,10,09,09,59,236.00
2018,10,09,10,00,236.00
2018,10,09,10,01,236.00
2018,10,09,10,02,236.00
2018,10,09,10,03,236.00
2018,10,09,10,04,236.00
2018,10,09,10,05,226.60
2018,10,09,10,06,142.00
2018,10,09,10,07,142.00
2018,10,09,10,08,142.00
2018,10,09,10,09,144.40
2018,10,09,10,10,149.00
2018,10,09,10,11,128.00
2018,10,09,10,12,100.00
2018,10,09,10,13,100.00
2018,10,09,10,14,272.20
2018,10,09,10,15,387.00
2018,10,09,10,16,378.20
2018,10,09,10,17,379.40
2018,10,09,10,18,365.60
2018,10,09,10,19,364.00
2018,10,09,10,20,364.00
2018,10,09,10,21,364.00
2018,10,09,10,22,364.00
2018,10,09,10,23,371.00
2018,10,09,10,24,393.40
2018,10,09,10,25,400.00
2018,10,09,10,26,409.10
2018,10,09,10,27,385.20
2018,10,09,10,28,390.60
2018,10,09,10,29,408.00
2018,10,09,10,30,409.50
2018,10,09,10,31,411.00
2018,10,09,10,32,411.00
2018,10,09,10,33,411.00
2018,10,09,10,34,411.00
2018,10,09,10,35,432.80
2018,10,09,10,36,367.90
2018,10,09,10,37,418.00
2018,10,09,10,38,418.50
2018,10,09,10,39,420.00
2018,10,09,10,40,420.00
2018,10,09,10,41,420.00
2018,10,09,10,42,420.00
2018,10,09,10,43,426.00
2018,10,09,10,44,431.60
2018,10,09,10,45,432.00
2018,10,09,10,46,432.00
2018,10,09,10,47,432.00
2018,10,09,10,48,429.30
2018,10,09,10,49,431.00
2018,10,09,10,50,434.00
2018,10,09,10,51,435.40
2018,10,09,10,52,445.40
2018,10,09,10,53,452.30
2018,10,09,10,54,446.70
2018,10,09,10,55,448.00
2018,10,09,10,56,448.00
2018,10,09,10,57,448.00
2018,10,09,10,58,448.00
2018,10,09,10,59,448.00
2018,10,09,11,00,390.60
2018,10,09,11,01,366.00
2018,10,09,11,02,488.90
2018,10,09,11,03,516.50
2018,10,09,11,04,517.00
2018,10,09,11,05,341.00
2018,10,09,11,06,362.90
2018,10,09,11,07,487.00
2018,10,09,11,08,489.10
2018,10,09,11,09,494.00
2018,10,09,11,10,488.70
2018,10,09,11,11,479.10
2018,10,09,11,12,478.00
2018,10,09,11,13,486.40
2018,10,09,11,14,496.70
2018,10,09,11,15,491.60
2018,10,09,11,16,487.50
2018,10,09,11,17,491.00
2018,10,09,11,18,501.90
2018,10,09,11,19,485.90
2018,10,09,11,20,485.90
2018,10,09,11,21,494.00
2018,10,09,11,22,491.80
2018,10,09,11,23,486.10
2018,10,09,11,24,494.00
2018,10,09,11,25,494.00
2018,10,09,11,26,505.20
2018,10,09,11,27,523.00
2018,10,09,11,28,527.00
2018,10,09,11,29,516.00
2018,10,09,11,30,510.00
2018,10,09,11,31,521.10
2018,10,09,11,32,524.00
2018,10,09,11,33,524.00
2018,10,09,11,34,524.00
2018,10,09,11,35,524.00
2018,10,09,11,36,521.30
2018,10,09,11,37,506.00
2018,10,09,11,38,506.00
2018,10,09,11,39,506.00
2018,10,09,11,40,529.20
2018,10,09,11,41,564.00
2018,10,09,11,42,564.00
2018,10,09,11,43,564.00
2018,10,09,11,44,533.50
2018,10,09,11,45,518.40
2018,10,09,11,46,519.80
2018,10,09,11,47,520.00
2018,10,09,11,48,538.90
2018,10,09,11,49,526.00
2018,10,09,11,50,521.50
2018,10,09,11,51,516.70
2018,10,09,11,52,515.40
2018,10,09,11,53,517.50
2018,10,09,11,54,503.70
2018,10,09,11,55,491.80
2018,10,09,11,56,522.80
2018,10,09,11,57,526.00
2018,10,09,11,58,526.00
2018,10,09,11,59,522.10
2018,10,09,12,00,520.00
2018,10,09,12,01,521.50
2018,10,09,12,02,529.70
2018,10,09,12,03,539.90
2018,10,09,12,04,542.90
2018,10,09,12,05,536.50
2018,10,09,12,06,490.90
2018,10,09,12,07,422.00
2018,10,09,12,08,422.00
2018,10,09,12,09,422.00
2018,10,09,12,10,465.60
2018,10,09,12,11,530.10
2018,10,09,12,12,529.00
2018,10,09,12,13,529.00
2018,10,09,12,14,529.00
2018,10,09,12,15,533.90
2018,10,09,12,16,536.00
2018,10,09,12,17,536.00
2018,10,09,12,18,536.00
2018,10,09,12,19,541.00
2018,10,09,12,20,545.00
2018,10,09,12,21,543.70
2018,10,09,12,22,536.00
2018,10,09,12,23,536.50
2018,10,09,12,24,538.70
2018,10,09,12,25,540.40
2018,10,09,12,26,541.00
2018,10,09,12,27,546.80
2018,10,09,12,28,547.00
2018,10,09,12,29,543.00
2018,10,09,12,30,545.80
2018,10,09,12,31,547.00
2018,10,09,12,32,547.00
2018,10,09,12,33,541.60
2018,10,09,12,34,540.00
2018,10,09,12,35,540.10
2018,10,09,12,36,541.00
2018,10,09,12,37,541.40
2018,10,09,12,38,543.00
2018,10,09,12,39,544.40
2018,10,09,12,40,544.60
2018,10,09,12,41,543.90
2018,10,09,12,42,547.00
2018,10,09,12,43,544.80
2018,10,09,12,44,545.60
2018,10,09,12,45,545.60
2018,10,09,12,46,541.80
2018,10,09,12,47,542.60
2018,10,09,12,48,541.20
2018,10,09,12,49,542.90
2018,10,09,12,50,543.10
2018,10,09,12,51,545.00
2018,10,09,12,52,545.00
2018,10,09,12,53,545.00
2018,10,09,12,54,545.00
2018,10,09,12,55,545.00
2018,10,09,12,56,545.00
2018,10,09,12,57,545.00
2018,10,09,12,58,543.80
2018,10,09,12,59,545.60
2018,10,09,13,00,545.60
2018,10,09,13,01,545.00
2018,10,09,13,02,545.00
2018,10,09,13,03,543.20
2018,10,09,13,04,543.00
2018,10,09,13,05,543.00
2018,10,09,13,06,543.00
2018,10,09,13,07,543.40
2018,10,09,13,08,545.00
2018,10,09,13,09,545.00
2018,10,09,13,10,545.00
2018,10,09,13,11,544.10
2018,10,09,13,12,543.00
2018,10,09,13,13,543.00
2018,10,09,13,14,543.00
2018,10,09,13,15,543.00
2018,10,09,13,16,543.00
2018,10,09,13,17,544.70
2018,10,09,13,18,543.20
2018,10,09,13,19,543.00
2018,10,09,13,20,543.00
2018,10,09,13,21,543.00
2018,10,09,13,22,543.00
2018,10,09,13,23,542.40
2018,10,09,13,24,541.00
2018,10,09,13,25,541.70
2018,10,09,13,26,543.00
2018,10,09,13,27,541.90
2018,10,09,13,28,541.00
2018,10,09,13,29,541.00
2018,10,09,13,30,541.00
2018,10,09,13,31,540.20
2018,10,09,13,32,540.00
2018,10,09,13,33,540.00
2018,10,09,13,34,538.20
2018,10,09,13,35,540.00
2018,10,09,13,36,539.70
2018,10,09,13,37,537.60
2018,10,09,13,38,536.00
2018,10,09,13,39,536.00
2018,10,09,13,40,536.80
2018,10,09,13,41,537.20
2018,10,09,13,42,536.00
2018,10,09,13,43,536.00
2018,10,09,13,44,536.00
2018,10,09,13,45,536.00
2018,10,09,13,46,534.50
2018,10,09,13,47,534.00
2018,10,09,13,48,534.00
2018,10,09,13,49,534.00
2018,10,09,13,50,531.10
2018,10,09,13,51,533.00
2018,10,09,13,52,533.00
2018,10,09,13,53,533.00
2018,10,09,13,54,532.30
2018,10,09,13,55,531.00
2018,10,09,13,56,531.00
2018,10,09,13,57,529.90
2018,10,09,13,58,527.30
2018,10,09,13,59,526.00
2018,10,09,14,00,524.60
2018,10,09,14,01,525.50
2018,10,09,14,02,526.00
2018,10,09,14,03,524.20
2018,10,09,14,04,524.00
2018,10,09,14,05,522.00
2018,10,09,14,06,522.00
2018,10,09,14,07,522.00
2018,10,09,14,08,522.00
2018,10,09,14,09,521.00
2018,10,09,14,10,518.20
2018,10,09,14,11,515.20
2018,10,09,14,12,513.00
2018,10,09,14,13,511.20
2018,10,09,14,14,511.30
2018,10,09,14,15,512.70
2018,10,09,14,16,510.70
2018,10,09,14,17,511.70
2018,10,09,14,18,508.60
2018,10,09,14,19,508.00
2018,10,09,14,20,508.00
2018,10,09,14,21,508.00
2018,10,09,14,22,507.60
2018,10,09,14,23,506.00
2018,10,09,14,24,506.00
2018,10,09,14,25,505.30
2018,10,09,14,26,503.60
2018,10,09,14,27,503.00
2018,10,09,14,28,503.00
2018,10,09,14,29,500.40
2018,10,09,14,30,501.70
2018,10,09,14,31,500.00
2018,10,09,14,32,499.00
2018,10,09,14,33,499.00
2018,10,09,14,34,497.10
2018,10,09,14,35,497.00
2018,10,09,14,36,497.00
2018,10,09,14,37,496.00
2018,10,09,14,38,491.40
2018,10,09,14,39,490.00
2018,10,09,14,40,490.00
2018,10,09,14,41,490.00
2018,10,09,14,42,487.50
2018,10,09,14,43,486.10
2018,10,09,14,44,487.00
2018,10,09,14,45,485.60
2018,10,09,14,46,485.00
2018,10,09,14,47,485.00
2018,10,09,14,48,476.00
2018,10,09,14,49,475.00
2018,10,09,14,50,475.30
2018,10,09,14,51,477.70
2018,10,09,14,52,476.00
2018,10,09,14,53,472.40
2018,10,09,14,54,464.00
2018,10,09,14,55,464.00
2018,10,09,14,56,463.10
2018,10,09,14,57,458.50
2018,10,09,14,58,455.00
2018,10,09,14,59,450.60
2018,10,09,15,00,441.70
2018,10,09,15,01,448.80
2018,10,09,15,02,447.10
2018,10,09,15,03,451.40
2018,10,09,15,04,450.00
2018,10,09,15,05,450.00
2018,10,09,15,06,449.40
2018,10,09,15,07,446.00
2018,10,09,15,08,446.00
2018,10,09,15,09,446.00
2018,10,09,15,10,444.20
2018,10,09,15,11,441.00
2018,10,09,15,12,436.50
2018,10,09,15,13,431.50
2018,10,09,15,14,431.60
2018,10,09,15,15,432.00
2018,10,09,15,16,426.00
2018,10,09,15,17,424.00
2018,10,09,15,18,420.40
2018,10,09,15,19,419.40
2018,10,09,15,20,408.00
2018,10,09,15,21,407.70
2018,10,09,15,22,406.40
2018,10,09,15,23,408.00
2018,10,09,15,24,408.00
2018,10,09,15,25,408.00
2018,10,09,15,26,408.00
2018,10,09,15,27,408.00
2018,10,09,15,28,408.00
2018,10,09,15,29,408.00
2018,10,09,15,30,410.10
2018,10,09,15,31,411.00
2018,10,09,15,32,411.00
2018,10,09,15,33,404.70
2018,10,09,15,34,404.00
2018,10,09,15,35,403.70
2018,10,09,15,36,400.70
2018,10,09,15,37,399.00
2018,10,09,15,38,398.20
2018,10,09,15,39,396.00
2018,10,09,15,40,396.00
2018,10,09,15,41,394.20
2018,10,09,15,42,392.00
2018,10,09,15,43,392.00
2018,10,09,15,44,385.40
2018,10,09,15,45,380.30
2018,10,09,15,46,380.00
2018,10,09,15,47,374.00
2018,10,09,15,48,377.50
2018,10,09,15,49,376.10
2018,10,09,15,50,370.80
2018,10,09,15,51,368.00
2018,10,09,15,52,362.00
2018,10,09,15,53,361.40
2018,10,09,15,54,359.70
2018,10,09,15,55,359.00
2018,10,09,15,56,359.00
2018,10,09,15,57,359.00
2018,10,09,15,58,359.00
2018,10,09,15,59,359.00
2018,10,09,16,00,347.80
2018,10,09,16,01,339.10
2018,10,09,16,02,333.20
2018,10,09,16,03,349.00
2018,10,09,16,04,348.00
2018,10,09,16,05,345.10
2018,10,09,16,06,346.00
2018,10,09,16,07,343.10
2018,10,09,16,08,332.00
2018,10,09,16,09,326.40
2018,10,09,16,10,318.40
2018,10,09,16,11,322.00
2018,10,09,16,12,322.00
2018,10,09,16,13,318.70
2018,10,09,16,14,306.90
2018,10,09,16,15,302.00
2018,10,09,16,16,302.00
2018,10,09,16,17,302.00
2018,10,09,16,18,308.00
2018,10,09,16,19,314.70
2018,10,09,16,20,315.00
2018,10,09,16,21,315.00
2018,10,09,16,22,309.30
2018,10,09,16,23,285.80
2018,10,09,16,24,279.00
2018,10,09,16,25,279.00
2018,10,09,16,26,260.10
2018,10,09,16,27,219.90
2018,10,09,16,28,211.50
2018,10,09,16,29,212.80
2018,10,09,16,30,211.00
2018,10,09,16,31,211.00
2018,10,09,16,32,224.60
2018,10,09,16,33,220.70
2018,10,09,16,34,221.20
2018,10,09,16,35,246.50
2018,10,09,16,36,269.00
2018,10,09,16,37,270.40
2018,10,09,16,38,264.90
2018,10,09,16,39,237.20
2018,10,09,16,40,234.00
2018,10,09,16,41,246.60
2018,10,09,16,42,257.00
2018,10,09,16,43,250.00
2018,10,09,16,44,250.00
2018,10,09,16,45,237.40
2018,10,09,16,46,241.50
2018,10,09,16,47,244.00
2018,10,09,16,48,217.00
2018,10,09,16,49,202.60
2018,10,09,16,50,191.00
2018,10,09,16,51,181.60
2018,10,09,16,52,184.60
2018,10,09,16,53,180.60
2018,10,09,16,54,171.30
2018,10,09,16,55,165.00
2018,10,09,16,56,165.00
2018,10,09,16,57,163.90
2018,10,09,16,58,161.20
2018,10,09,16,59,160.00
2018,10,09,17,00,160.00
2018,10,09,17,01,168.70
2018,10,09,17,02,180.60
2018,10,09,17,03,183.00
2018,10,09,17,04,183.00
2018,10,09,17,05,181.40
2018,10,09,17,06,167.00
2018,10,09,17,07,167.00
2018,10,09,17,08,163.30
2018,10,09,17,09,153.00
2018,10,09,17,10,146.40
2018,10,09,17,11,133.60
2018,10,09,17,12,124.00
2018,10,09,17,13,113.00
2018,10,09,17,14,109.70
2018,10,09,17,15,111.70
2018,10,09,17,16,113.00
2018,10,09,17,17,111.30
2018,10,09,17,18,111.00
2018,10,09,17,19,111.00
2018,10,09,17,20,112.60
2018,10,09,17,21,109.00
2018,10,09,17,22,110.30
2018,10,09,17,23,116.60
2018,10,09,17,24,118.70
2018,10,09,17,25,121.20
2018,10,09,17,26,124.00
2018,10,09,17,27,125.00
2018,10,09,17,28,125.00
2018,10,09,17,29,117.20
2018,10,09,17,30,107.40
2018,10,09,17,31,104.20
2018,10,09,17,32,104.00
2018,10,09,17,33,98.90